Regional Weather Roundup
Issued by NWS Charleston, SC

Current Version | Previous Version | Graphics & Text | Print | Product List | Glossary On
Versions: 1 2 3 4 5 6 7 8 9 10 11 12 13 14 15 16 17 18 19 20 21 22 23 24 25 26 27 28 29 30 31 32 33 34 35 36 37 38 39 40 41 42 43 44 45 46 47 48 49 50
424
ASUS42 KCHS 212142
RWRCHS

REGIONAL WEATHER ROUNDUP
NATIONAL WEATHER SERVICE CHARLESTON SC
500 PM EDT THU SEP 21 2017

NOTE: "FAIR" INDICATES FEW OR NO CLOUDS BELOW 12,000 FEET WITH NO
SIGNIFICANT WEATHER AND/OR OBSTRUCTIONS TO VISIBILITY.

NOT ALL STATIONS ARE QUALITY CONTROLLED. USE DATA WITH CAUTION...
ESPECIALLY DEWPOINT OBSERVATIONS.

SCZ027-030-031-034>040-042>050-212200-
...SOUTHEAST SOUTH CAROLINA...

CITY           SKY/WX    TMP DP  RH WIND       PRES   REMARKS
N CHARLESTON   PTSUNNY   78  65  63 W6        29.97F
WATERFRONT PRK   N/A     84  73  69 S7        29.81F HX  90
JOHNS ISLAND   FAIR      86  73  66 S7        29.97S HX  93
PINOPOLIS        N/A     91  68  46 CALM      29.88F HX  95
MONCKS CORNER  FAIR      81  66  61 S7        29.96F
SUMMERVILLE    FAIR      75  66  73 S7        29.98R THUNDER
BEAUFORT MCAS  MOSUNNY   87  75  67 SE3       29.96F HX  96
BEAUFORT ARPT  FAIR      84  72  65 SE6       29.96F
HILTON HEAD IS SUNNY     84  73  70 S6        29.98F HX  91
WALTERBORO     MOCLDY    81  64  57 E6G16     29.98R THUNDER
ALLENDALE      NOT AVBL

...SOUTHERN MIDLANDS AND PEE DEE...

CITY           SKY/WX    TMP DP  RH WIND       PRES   REMARKS
GEORGETOWN     FAIR      81  77  89 S3        29.98S
KINGSTREE      MOCLDY    81  66  61 NW10      29.96R
ORANGEBURG     CLOUDY    89  66  46 E3        29.95F HX  91
BARNWELL       FAIR      90  72  55 SE12      29.96S HX  96
AIKEN          FAIR      90  63  40 N6        30.00F HX  90
MANNING        FAIR      90  30  12 N5        29.97R THUNDER
COLUMBIA       MOSUNNY   94  64  37 N5        29.95F HX  95
SUMTER         MOSUNNY   88  63  42 SE8       29.95S
FLORENCE       CLOUDY    89  68  49 N5        29.96F HX  93
MYRTLE BEACH   PTSUNNY   81  75  82 S7        29.99R
N MYRTLE BEACH CLOUDY    79  69  71 CALM      29.98S

$$

GAZ063-065-086>088-099>101-113>116-118-119-134>141-150-212200-
...SOUTHEAST GEORGIA...

CITY           SKY/WX    TMP DP  RH WIND       PRES   REMARKS
SAVANNAH ARPT  PTSUNNY   88  70  55 S8        29.96F HX  93
HUNTER AAF     MOSUNNY   85  72  64 SE8       29.94F HX  91
FORT STEWART   MOSUNNY   88  69  53 S7        29.94F HX  93
STATESBORO     SUNNY     88  67  49 CALM      29.95F HX  90
SYLVANIA       TSTM      78  71  78 SE14G25   29.98S
CLAXTON        FAIR      90  70  51 E3        29.95F HX  95

...CSRA...CENTRAL AND FAR SOUTHEAST GEORGIA...

CITY           SKY/WX    TMP DP  RH WIND       PRES   REMARKS
THOMSON        SUNNY     91  64  40 NE6       30.02S HX  91
AUGUSTA-BUSH   SUNNY     92  63  38 CALM      29.94F HX  93
AUGUSTA-DANIEL MOSUNNY   92  64  39 N6        29.97F HX  93
SWAINSBORO     FAIR      88  70  55 S3        29.96F HX  92
VIDALIA        SUNNY     90  68  48 CALM      29.96S THUNDER HX  93
EASTMAN        FAIR      92  52  25 E3        29.97F
HAZLEHURST     FAIR      91  51  25 SE6       29.95S
ALMA           CLOUDY    80  77  90 CALM      29.96F FOG
WAYCROSS       CLOUDY    86  69  57 CALM      29.97S HX  90
JESUP          NOT AVBL
BAXLEY         FAIR      86  70  58 CALM      29.96S HX  90
BRUNSWICK      MOSUNNY   84  70  61 SE8       29.98S
SAINT SIMONS   SUNNY     84  75  74 E9        29.97F HX  92

$$

SCZ027-028-034-036>038-045-046-048>050-GAZ119-141-212200-
...LAKE AND SUPPLEMENTAL COASTAL OBSERVATIONS...

STATION/POSITION TIME  TEMP    WIND        PRES    WAVE   SWELL
                       AIR SEA DIR/SP/G            HT/PER HT/PER/DIR
                 (UTC) (F)     (DEG/KT/KT) (MB)    (FT/S) (FT/S/D)
WINYAH BAY       2045   82     160/  7     1015.0S
LAKE MURRAY      NOT AVBL
ACE BASIN NERRS  2045   86     160/  2     1015.0F
FORT PULASKI     2100   84 80  160/  5/  6 1015.2
SAPELO ISLAND    2100   85        CALM     1015.0

$$

ANZ835-935-AMZ111-154-330-350-352-354-370-450-454-472-212200-
...C-MAN AND BUOY OBSERVATIONS...

STATION/POSITION TIME  TEMP    WIND        PRES    WAVE   SWELL
                       AIR SEA DIR/SP/G            HT/PER HT/PER/DIR
                 (UTC) (F)     (DEG/KT/KT) (MB)    (FT/S) (FT/S/D)
BUOY 41004       2110   81 81  180/  4/  6 1014.5
BUOY 41008       2050   81 83   80/  6/  8 1014.9F   3/11   2/ 70/11
FOLLY BEACH CMAN 2100   81     180/  7/  8 1015.7F
CAPERS NEARSHORE 2108   81 82  200/  8/ 10 1014.7F
FRIPP NEARSHORE  2108   83     190/  8/ 10 1021.4F


STATION/POSITION TIME  TEMP    WIND        PRES    WAVE   SWELL
                       AIR SEA DIR/SP/G            HT/PER HT/PER/DIR
                 (UTC) (F)     (DEG/KT/KT) (MB)    (FT/S) (FT/S/D)
5E ST. MARYS GA  2030      84                N/A     2/11   2/100/11
FRYING PAN BUOY  2110   82 83  200/  4/  6 1014.7
BUOY 41025       2050   78 79   30/  4/  6 1015.4S   5/10   5/ 70/10
CAPE LOOKOUT NC  2100   80     150/  4/  4 1014.6F
BUOY 41002       2050   80 85   CALM  /  2 1015.2F   5/10   5/ 60/10
BUOY 41010       2110      85   50/ 12/ 16 1014.3
ST AUGUSTINE FL  2100   81 85   50/  9/ 11 1015.3F


$$




USA.gov is the U.S. government's official web portal to all federal, state and local government web resources and services.